Location: Poughquag
(41.6090°N, 73.6820°W)
Time: 04:20:44
(UTC-04:00)

STARLINK-1349 - Pass Details

Date: 29 May 2020
Orbit: 549 x 550 km, 53.0° (Epoch: 25 September)

Event Time Altitude Azimuth Distance (km) Brightness Sun altitude
Exits shadow 00:06:57 23° 59° (ENE) 1,181 5.4 -25.8°
Drops below altitude 10° 00:08:37 10° 56° (NE) 1,817 6.5 -25.9°
Enters shadow 01:14:52 -50° 242° (WSW) 10,440 10.1 -26.5°
